THOR ABLESTAR DEB, 559

Orbit data source: Space-Track

THOR ABLESTAR DEB, 559 is space debris in LEO originally from a launch on Thu, 29 Jun 1961 UTC launched from the Air Force Eastern Test Range (AFETR). Debris objects in space refer to the collection of defunct objects orbiting the Earth. Examples of debris include non-operational satellites, rocket bodies, and fragments generated from explosions, collisions, or faulty payload assembly.

Loading next visibility...
Identifier
559, 1961-015GR
Orbit
LEO
Country
Flag of USUS
Related business
Manufacturer
Unknown
Mission
Spacecraft
Bus & Motor
Unknown
Mass
Unknown
Launch date (UTC)
1961-06-29 (64 years ago)
Launch vehicle
Unknown
Launch site
Air Force Eastern Test Range (AFETR)
Object type
Payload
Rocket body
Debris
Shape & HBR
Unknown shape, 0.1 m
Radar Cross Section
Small (<0.1 m²)

Expand to show TLE details & history
Last TLE update: 22 hours ago

TLE from 22 hours ago
0 THOR ABLESTAR DEB
1 00559U 61015GR  25349.67418537  .00006411  00000-0  10602-2 0  9999
2 00559  66.5993  87.2194 0050883 290.3452  69.2202 14.70117501322767
Epoch: 2025-12-15T16:10Z
TLE epoch observation values (Epoch: 2025-12-15T16:10:49.615Z)
Latitude
-0.00012°
Longitude
119.94326°
Altitude
650.283 km
Speed
7.54 km/s
True Right ascension
05h 48m 52s
True Declination
0° 00' 00"
Sunlit
Object was in full shadow at epoch
Visualization orbit readout
Latitude
Unknown
Longitude
Unknown
Altitude
Unknown
Speed
Unknown
Apparent Right ascension
Unknown
Apparent Declination
Unknown
Sunlit
N/A
Visualization observer readout
Local Sidereal Time
12:38:06
Azimuth
Unknown
Elevation
Unknown
Doppler factor
Unknown
Orbital elements
Apogee altitude
694.857 km
Perigee altitude
623.242 km
Semi-major axis
7,037.186 km
Eccentricity
0.00509
Inclination
66.5993°
RAAN
87.2194°
Arg. of periapsis
290.3452°
True anomaly
69.76657°
Mean anomaly
69.2202°
Eccentric anomaly
69.49326°
Mean motion
3.67658 °/min
Orbital period
97.92 mins
BSTAR
0.0010602
Loading maneuver chart data...
Computing Atmospheric mass density...

Documentation

Showing up to 5 results
|